Flag for U.S.A. Weather past 2 weeks in Salinas, California, U.S.A.

Now
69 °F

Sunny.


Feels Like: 69 °F
Forecast: 56 / 70 °F
Wind: 16 mph from Southwest

Location: Salinas Municipal Airport

Current Time: Sep 4, 2015 at 2:20:12 PM

Latest Report: Sep 4, 2015 at 1:53 PM


Visibility: 10 mi

Pressure: 29.95 "Hg

Humidity: 47%

Dew point: 48 °F

Location of SalinasLocation

Historic Weather in Salinas — Graph

°F

Salinas temperature yesterday

Maximum temperature yesterday: 70 °F (at 1:53 PM)
Minimum temperature yesterday: 60 °F (at 3:53 AM)
Average temperature yesterday: 64 °F

Past Weeks' High & Low Weather Summary

 TemperatureHumidityPressure
High89 °F (Aug 28, 1:53 PM)96% (Aug 29, 5:53 AM)30.08 "Hg (Aug 29, 5:53 AM)
Low56 °F (Sep 4, 3:53 AM)28% (Aug 28, 10:53 AM)29.89 "Hg (Aug 28, 3:53 PM)
Average66 °F70%29.98 "Hg
* Reported Aug 20 12:53 PM — Sep 4 12:53 PM, Salinas, Weather by CustomWeather, © 2015

Note: Actual official high and low records may vary slightly from our data, if they occured in-between our weather recording intervals... More about our weather records

Advertising

Salinas weather history for previous 24 hours

 ConditionsComfort  
Time TempWeatherWind HumidityBarometerVisibility
12:53 PM
Fri, Sep 4
68 °FSunny.15 mph49%29.95 "Hg10 mi
11:53 AM67 °FSunny.15 mph51%29.96 "Hg10 mi
10:53 AM65 °FSunny.10 mph54%29.96 "Hg10 mi
9:53 AM63 °FScattered clouds.6 mph60%29.96 "Hg9 mi
8:53 AM61 °FOvercast.9 mph65%29.95 "Hg8 mi
7:53 AM58 °FOvercast.7 mph72%29.94 "Hg8 mi
6:53 AM59 °FOvercast.8 mph72%29.92 "Hg8 mi
5:53 AM59 °FOvercast.8 mph72%29.91 "Hg9 mi
4:53 AM58 °FOvercast.5 mph75%29.90 "Hg9 mi
3:53 AM56 °FOvercast.No wind77%29.90 "Hg9 mi
2:53 AM57 °FPassing clouds.No wind78%29.89 "Hg9 mi
1:53 AM59 °FPassing clouds.5 mph75%29.90 "Hg9 mi
12:53 AM59 °FOvercast.5 mph75%29.91 "Hg8 mi
11:53 PM
Thu, Sep 3
60 °FOvercast.5 mph72%29.91 "Hg9 mi
10:53 PM61 °FOvercast.7 mph72%29.91 "Hg9 mi
9:53 PM61 °FPassing clouds.9 mph72%29.90 "Hg9 mi
8:53 PM62 °FPassing clouds.7 mph70%29.91 "Hg9 mi
7:53 PM63 °FSunny.13 mph68%29.90 "Hg10 mi
6:53 PM64 °FSunny.15 mph65%29.90 "Hg9 mi
5:53 PM66 °FSunny.17 mph63%29.91 "Hg10 mi
4:53 PM68 °FSunny.16 mph59%29.91 "Hg10 mi
3:53 PM69 °FSunny.15 mph51%29.91 "Hg10 mi
2:53 PM69 °FSunny.15 mph51%29.93 "Hg10 mi
Weather by CustomWeather, © 2015

See weather overviewHow to use our weather pages